datetime,inst air temperature
1990-10-01,52.34
1990-10-02,40.28
1990-10-03,35.42
1990-10-04,42.26
1990-10-05,50.18
1990-10-06,25.52
1990-10-07,25.7
1990-10-08,29.3
1990-10-09,36.86
1990-10-10,42.98
1990-10-11,28.22
1990-10-12,43.16
1990-10-13,37.94
1990-10-14,34.34
1990-10-15,49.46
1990-10-16,36.14
1990-10-17,25.16
1990-10-18,46.4
1990-10-19,26.06
1990-10-20,25.34
1990-10-21,36.14
1990-10-22,41.36
1990-10-23,36.68
1990-10-24,41.72
1990-10-25,51.08
1990-10-26,40.28
1990-10-27,39.92
1990-10-28,46.22
1990-10-29,32.0
1990-10-30,39.2
1990-10-31,36.68
1990-11-01,22.82
1990-11-02,16.88
1990-11-03,27.5
1990-11-04,34.34
1990-11-05,26.6
1990-11-06,24.98
1990-11-07,23.36
1990-11-08,40.82
1990-11-09,31.46
1990-11-10,36.14
1990-11-11,39.02
1990-11-12,42.62
1990-11-13,47.48
1990-11-14,30.2
1990-11-15,19.04
1990-11-16,28.4
1990-11-17,33.8
1990-11-18,30.92
1990-11-19,26.42
1990-11-20,21.92
1990-11-21,27.5
1990-11-22,26.06
1990-11-23,27.68
1990-11-24,37.76
1990-11-25,40.1
1990-11-26,18.68
1990-11-27,22.28
1990-11-28,16.7
1990-11-29,22.82
1990-11-30,27.68
1990-12-01,16.52
1990-12-02,21.92
1990-12-03,22.64
1990-12-04,35.78
1990-12-05,26.06
1990-12-06,20.48
1990-12-07,24.98
1990-12-08,32.36
1990-12-09,33.98
1990-12-10,37.76
1990-12-11,27.32
1990-12-12,14.0
1990-12-13,21.02
1990-12-14,8.78
1990-12-15,21.38
1990-12-16,21.92
1990-12-17,23.36
1990-12-18,30.56
1990-12-19,12.38
1990-12-20,-14.26
1990-12-21,-20.92
1990-12-22,-15.7
1990-12-23,4.28
1990-12-24,3.74
1990-12-25,16.7
1990-12-26,21.92
1990-12-27,18.14
1990-12-28,20.84
1990-12-29,1.76
1990-12-30,7.7
1990-12-31,16.7
1991-01-01,26.78
1991-01-02,26.96
1991-01-03,26.6
1991-01-04,22.64
1991-01-05,21.38
1991-01-06,27.5
1991-01-07,27.14
1991-01-08,24.44
1991-01-09,23.18
1991-01-10,28.94
1991-01-11,30.92
1991-01-12,32.36
1991-01-13,35.96
1991-01-14,33.62
1991-01-15,34.34
1991-01-16,21.74
1991-01-17,31.1
1991-01-18,29.84
1991-01-19,28.76
1991-01-20,20.3
1991-01-21,16.16
1991-01-22,27.14
1991-01-23,27.14
1991-01-24,22.64
1991-01-25,21.56
1991-01-26,25.34
1991-01-27,26.42
1991-01-28,20.48
1991-01-29,12.56
1991-01-30,23.72
1991-01-31,35.24
1991-02-01,32.54
1991-02-02,40.46
1991-02-03,32.72
1991-02-04,31.82
1991-02-05,32.36
1991-02-06,26.96
1991-02-07,31.82
1991-02-08,31.82
1991-02-09,32.0
1991-02-10,30.38
1991-02-11,39.02
1991-02-12,26.6
1991-02-13,35.24
1991-02-14,34.88
1991-02-15,37.94
1991-02-16,33.98
1991-02-17,27.32
1991-02-18,23.36
1991-02-19,32.72
1991-02-20,32.54
1991-02-21,32.18
1991-02-22,36.5
1991-02-23,29.12
1991-02-24,28.22
1991-02-25,31.1
1991-02-26,36.14
1991-02-27,31.1
1991-02-28,34.16
1991-03-01,31.82
1991-03-02,29.3
1991-03-03,32.0
1991-03-04,31.82
1991-03-05,22.82
1991-03-06,19.4
1991-03-07,15.8
1991-03-08,21.02
1991-03-09,30.56
1991-03-10,26.06
1991-03-11,16.88
1991-03-12,24.08
1991-03-13,22.28
1991-03-14,22.64
1991-03-15,21.92
1991-03-16,18.14
1991-03-17,24.26
1991-03-18,28.58
1991-03-19,25.88
1991-03-20,19.58
1991-03-21,21.56
1991-03-22,24.62
1991-03-23,26.06
1991-03-24,23.72
1991-03-25,25.16
1991-03-26,22.64
1991-03-27,20.48
1991-03-28,25.52
1991-03-29,23.72
1991-03-30,30.38
1991-03-31,38.48
1991-04-01,33.44
1991-04-02,33.44
1991-04-03,29.66
1991-04-04,31.82
1991-04-05,39.38
1991-04-06,28.4
1991-04-07,22.82
1991-04-08,18.86
1991-04-09,33.8
1991-04-10,15.8
1991-04-11,16.52
1991-04-12,30.92
1991-04-13,30.92
1991-04-14,30.56
1991-04-15,24.8
1991-04-16,27.32
1991-04-17,29.12
1991-04-18,30.92
1991-04-19,30.56
1991-04-20,35.78
1991-04-21,34.7
1991-04-22,36.5
1991-04-23,34.16
1991-04-24,33.44
1991-04-25,22.82
1991-04-26,24.8
1991-04-27,23.18
1991-04-28,25.16
1991-04-29,26.06
1991-04-30,32.0
1991-05-01,34.34
1991-05-02,30.92
1991-05-03,27.32
1991-05-04,33.62
1991-05-05,41.36
1991-05-06,37.04
1991-05-07,33.98
1991-05-08,41.0
1991-05-09,20.48
1991-05-10,28.58
1991-05-11,31.46
1991-05-12,36.68
1991-05-13,35.42
1991-05-14,32.18
1991-05-15,32.72
1991-05-16,39.92
1991-05-17,31.1
1991-05-18,26.6
1991-05-19,31.28
1991-05-20,33.98
1991-05-21,40.64
1991-05-22,43.7
1991-05-23,44.06
1991-05-24,43.7
1991-05-25,31.46
1991-05-26,29.48
1991-05-27,33.08
1991-05-28,35.78
1991-05-29,32.36
1991-05-30,31.82
1991-05-31,28.04
1991-06-01,42.98
1991-06-02,48.2
1991-06-03,44.6
1991-06-04,36.14
1991-06-05,32.18
1991-06-06,30.56
1991-06-07,37.58
1991-06-08,42.98
1991-06-09,48.74
1991-06-10,56.3
1991-06-11,50.18
1991-06-12,41.36
1991-06-13,30.2
1991-06-14,27.32
1991-06-15,42.26
1991-06-16,36.5
1991-06-17,35.78
1991-06-18,41.9
1991-06-19,40.82
1991-06-20,35.6
1991-06-21,38.48
1991-06-22,38.12
1991-06-23,40.64
1991-06-24,37.22
1991-06-25,39.02
1991-06-26,39.38
1991-06-27,40.28
1991-06-28,41.9
1991-06-29,44.6
1991-06-30,39.38
1991-07-01,47.84
1991-07-02,58.46
1991-07-03,62.42
1991-07-04,64.58
1991-07-05,59.18
1991-07-06,54.5
1991-07-07,52.88
1991-07-08,55.58
1991-07-09,55.22
1991-07-10,44.78
1991-07-11,52.34
1991-07-12,57.38
1991-07-13,56.84
1991-07-14,51.98
1991-07-15,49.1
1991-07-16,55.94
1991-07-17,58.64
1991-07-18,47.66
1991-07-19,53.42
1991-07-20,53.96
1991-07-21,50.72
1991-07-22,59.0
1991-07-23,59.9
1991-07-24,55.04
1991-07-25,48.74
1991-07-26,48.02
1991-07-27,54.68
1991-07-28,57.56
1991-07-29,59.0
1991-07-30,55.4
1991-07-31,60.62
1991-08-01,48.56
1991-08-02,53.96
1991-08-03,57.74
1991-08-04,60.44
1991-08-05,52.52
1991-08-06,50.18
1991-08-07,46.94
1991-08-08,49.46
1991-08-09,53.06
1991-08-10,42.26
1991-08-11,49.64
1991-08-12,52.88
1991-08-13,54.86
1991-08-14,54.32
1991-08-15,57.02
1991-08-16,50.18
1991-08-17,54.86
1991-08-18,55.4
1991-08-19,57.02
1991-08-20,57.2
1991-08-21,51.98
1991-08-22,58.1
1991-08-23,55.76
1991-08-24,53.24
1991-08-25,50.18
1991-08-26,50.0
1991-08-27,49.28
1991-08-28,45.5
1991-08-29,46.22
1991-08-30,50.36
1991-08-31,51.98
1991-09-01,47.3
1991-09-02,48.38
1991-09-03,53.96
1991-09-04,76.1
1991-09-05,58.64
1991-09-06,56.84
1991-09-07,51.8
1991-09-08,42.08
1991-09-09,40.28
1991-09-10,42.98
1991-09-11,45.32
1991-09-12,49.82
1991-09-13,52.34
1991-09-14,42.8
1991-09-15,47.48
1991-09-16,51.44
1991-09-17,60.08
1991-09-18,58.46
1991-09-19,59.0
1991-09-20,57.74
1991-09-21,39.38
1991-09-22,41.72
1991-09-23,51.62
1991-09-24,51.62
1991-09-25,58.1
1991-09-26,52.52
1991-09-27,48.92
1991-09-28,48.38
1991-09-29,51.08
1991-09-30,51.62
1991-10-01,54.68
1991-10-02,51.26
1991-10-03,51.62
1991-10-04,48.02
1991-10-05,48.74
1991-10-06,54.14
1991-10-07,49.82
1991-10-08,49.64
1991-10-09,52.52
1991-10-10,48.02
1991-10-11,54.32
1991-10-12,53.06
1991-10-13,46.22
1991-10-14,51.62
1991-10-15,57.2
1991-10-16,48.74
1991-10-17,44.06
1991-10-18,39.92
1991-10-19,45.5
1991-10-20,41.72
1991-10-21,45.68
1991-10-22,38.84
1991-10-23,25.16
1991-10-24,24.8
1991-10-25,31.46
1991-10-26,33.8
1991-10-27,24.62
1991-10-28,16.88
1991-10-29,30.02
1991-10-30,9.68
1991-10-31,23.36
1991-11-01,32.54
1991-11-02,32.36
1991-11-03,33.98
1991-11-04,40.1
1991-11-05,43.52
1991-11-06,45.14
1991-11-07,41.36
1991-11-08,47.84
1991-11-09,36.86
1991-11-10,33.62
1991-11-11,37.04
1991-11-12,39.2
1991-11-13,37.22
1991-11-14,26.42
1991-11-15,19.94
1991-11-16,21.02
1991-11-17,28.94
1991-11-18,27.5
1991-11-19,21.74
1991-11-20,31.64
1991-11-21,26.24
1991-11-22,15.08
1991-11-23,22.64
1991-11-24,33.62
1991-11-25,34.88
1991-11-26,36.14
1991-11-27,28.76
1991-11-28,17.42
1991-11-29,22.46
1991-11-30,13.28
1991-12-01,25.88
1991-12-02,29.3
1991-12-03,26.24
1991-12-04,26.42
1991-12-05,32.0
1991-12-06,38.84
1991-12-07,28.04
1991-12-08,18.86
1991-12-09,23.54
1991-12-10,26.24
1991-12-11,23.72
1991-12-12,28.58
1991-12-13,23.72
1991-12-14,27.86
1991-12-15,34.34
1991-12-16,28.94
1991-12-17,28.4
1991-12-18,33.44
1991-12-19,20.84
1991-12-20,14.9
1991-12-21,24.44
1991-12-22,30.38
1991-12-23,26.6
1991-12-24,24.98
1991-12-25,25.52
1991-12-26,34.16
1991-12-27,37.58
1991-12-28,32.54
1991-12-29,24.98
1991-12-30,27.86
1991-12-31,23.9
1992-01-01,26.96
1992-01-02,28.94
1992-01-03,33.26
1992-01-04,29.3
1992-01-05,30.38
1992-01-06,23.0
1992-01-07,23.72
1992-01-08,19.58
1992-01-09,23.72
1992-01-10,27.14
1992-01-11,24.08
1992-01-12,15.26
1992-01-13,22.46
1992-01-14,23.72
1992-01-15,26.06
1992-01-16,31.1
1992-01-17,27.32
1992-01-18,21.56
1992-01-19,23.18
1992-01-20,26.24
1992-01-21,27.68
1992-01-22,26.42
1992-01-23,29.84
1992-01-24,30.38
1992-01-25,32.0
1992-01-26,26.78
1992-01-27,34.7
1992-01-28,32.0
1992-01-29,31.64
1992-01-30,34.34
1992-01-31,41.72
1992-02-01,32.36
1992-02-02,23.36
1992-02-03,26.78
1992-02-04,28.94
1992-02-05,30.2
1992-02-06,30.56
1992-02-07,31.64
1992-02-08,28.04
1992-02-09,30.74
1992-02-10,33.8
1992-02-11,32.0
1992-02-12,35.24
1992-02-13,30.2
1992-02-14,29.66
1992-02-15,25.16
1992-02-16,24.26
1992-02-17,24.44
1992-02-18,28.76
1992-02-19,32.54
1992-02-20,36.14
1992-02-21,32.0
1992-02-22,32.0
1992-02-23,26.06
1992-02-24,33.08
1992-02-25,36.68
1992-02-26,36.5
1992-02-27,34.88
1992-02-28,32.9
1992-02-29,33.62
1992-03-01,34.16
1992-03-02,32.54
1992-03-03,34.34
1992-03-04,28.94
1992-03-05,33.26
1992-03-06,29.84
1992-03-07,31.28
1992-03-08,27.68
1992-03-09,26.42
1992-03-10,31.82
1992-03-11,32.36
1992-03-12,34.34
1992-03-13,38.3
1992-03-14,34.16
1992-03-15,26.78
1992-03-16,28.76
1992-03-17,29.3
1992-03-18,23.0
1992-03-19,28.4
1992-03-20,33.08
1992-03-21,35.78
1992-03-22,28.4
1992-03-23,28.58
1992-03-24,30.56
1992-03-25,36.32
1992-03-26,34.88
1992-03-27,28.94
1992-03-28,29.66
1992-03-29,31.46
1992-03-30,35.96
1992-03-31,37.58
1992-04-01,39.02
1992-04-02,41.36
1992-04-03,41.36
1992-04-04,33.62
1992-04-05,22.64
1992-04-06,18.68
1992-04-07,26.06
1992-04-08,37.04
1992-04-09,39.92
1992-04-10,37.04
1992-04-11,44.06
1992-04-12,36.14
1992-04-13,33.44
1992-04-14,31.28
1992-04-15,34.34
1992-04-16,38.66
1992-04-17,42.98
1992-04-18,26.96
1992-04-19,31.1
1992-04-20,43.52
1992-04-21,36.32
1992-04-22,28.4
1992-04-23,23.72
1992-04-24,37.76
1992-04-25,40.64
1992-04-26,44.42
1992-04-27,41.0
1992-04-28,46.22
1992-04-29,53.96
1992-04-30,36.14
1992-05-01,26.06
1992-05-02,40.1
1992-05-03,46.58
1992-05-04,50.18
1992-05-05,52.88
1992-05-06,56.84
1992-05-07,55.4
1992-05-08,46.76
1992-05-09,31.28
1992-05-10,36.68
1992-05-11,36.86
1992-05-12,36.68
1992-05-13,46.4
1992-05-14,46.04
1992-05-15,46.04
1992-05-16,44.42
1992-05-17,47.84
1992-05-18,44.06
1992-05-19,42.62
1992-05-20,37.76
1992-05-21,31.64
1992-05-22,41.54
1992-05-23,50.0
1992-05-24,57.2
1992-05-25,55.76
1992-05-26,45.86
1992-05-27,39.02
1992-05-28,49.28
1992-05-29,44.78
1992-05-30,50.72
1992-05-31,52.88
1992-06-01,56.48
1992-06-02,52.16
1992-06-03,52.34
1992-06-04,53.6
1992-06-05,44.42
1992-06-06,52.52
1992-06-07,50.72
1992-06-08,48.56
1992-06-09,48.38
1992-06-10,46.76
1992-06-11,49.82
1992-06-12,40.82
1992-06-13,33.62
1992-06-14,30.74
1992-06-15,34.34
1992-06-16,37.94
1992-06-17,42.62
1992-06-18,47.66
1992-06-19,48.38
1992-06-20,53.06
1992-06-21,56.66
1992-06-22,61.7
1992-06-23,65.48
1992-06-24,60.08
1992-06-25,48.38
1992-06-26,53.06
1992-06-27,50.54
1992-06-28,51.62
1992-06-29,38.66
1992-06-30,39.38
1992-07-01,42.62
1992-07-02,44.42
1992-07-03,48.02
1992-07-04,51.8
1992-07-05,44.78
1992-07-06,41.72
1992-07-07,40.46
1992-07-08,47.12
1992-07-09,45.86
1992-07-10,52.88
1992-07-11,46.76
1992-07-12,43.16
1992-07-13,51.26
1992-07-14,51.98
1992-07-15,52.34
1992-07-16,57.02
1992-07-17,63.14
1992-07-18,54.32
1992-07-19,56.3
1992-07-20,52.16
1992-07-21,45.14
1992-07-22,49.82
1992-07-23,37.76
1992-07-24,45.68
1992-07-25,51.26
1992-07-26,57.92
1992-07-27,60.26
1992-07-28,59.9
1992-07-29,58.1
1992-07-30,59.9
1992-07-31,58.46
1992-08-01,57.02
1992-08-02,57.74
1992-08-03,57.56
1992-08-04,54.86
1992-08-05,50.9
1992-08-06,53.78
1992-08-07,50.18
1992-08-08,49.28
1992-08-09,47.84
1992-08-10,57.38
1992-08-11,64.22
1992-08-12,66.02
1992-08-13,58.64
1992-08-14,64.94
1992-08-15,65.3
1992-08-16,57.56
1992-08-17,61.34
1992-08-18,62.24
1992-08-19,61.16
1992-08-20,57.02
1992-08-21,53.6
1992-08-22,33.62
1992-08-23,34.7
1992-08-24,38.66
1992-08-25,45.68
1992-08-26,48.2
1992-08-27,56.84
1992-08-28,54.86
1992-08-29,52.52
1992-08-30,55.04
1992-08-31,49.28
1992-09-01,44.42
1992-09-02,51.08
1992-09-03,46.76
1992-09-04,41.0
1992-09-05,41.36
1992-09-06,37.4
1992-09-07,37.04
1992-09-08,43.16
1992-09-09,46.04
1992-09-10,55.4
1992-09-11,52.16
1992-09-12,43.88
1992-09-13,30.2
1992-09-14,39.38
1992-09-15,45.68
1992-09-16,43.34
1992-09-17,49.64
1992-09-18,50.54
1992-09-19,53.24
1992-09-20,47.48
1992-09-21,49.64
1992-09-22,58.82
1992-09-23,56.3
1992-09-24,47.12
1992-09-25,32.54
1992-09-26,41.36
1992-09-27,48.02
1992-09-28,51.26
1992-09-29,54.32
1992-09-30,54.5
1992-10-01,54.68
1992-10-02,44.78
1992-10-03,37.4
1992-10-04,33.8
1992-10-05,38.3
1992-10-06,42.44
1992-10-07,41.36
1992-10-08,46.94
1992-10-09,42.62
1992-10-10,46.4
1992-10-11,50.54
1992-10-12,55.4
1992-10-13,47.3
1992-10-14,33.98
1992-10-15,32.9
1992-10-16,45.32
1992-10-17,38.48
1992-10-18,49.82
1992-10-19,43.16
1992-10-20,45.14
1992-10-21,41.36
1992-10-22,33.08
1992-10-23,40.82
1992-10-24,44.06
1992-10-25,46.58
1992-10-26,44.96
1992-10-27,43.16
1992-10-28,39.2
1992-10-29,34.52
1992-10-30,32.18
1992-10-31,33.08
1992-11-01,42.62
1992-11-02,40.82
1992-11-03,29.12
1992-11-04,33.08
1992-11-05,34.52
1992-11-06,34.7
1992-11-07,45.32
1992-11-08,28.58
1992-11-09,24.8
1992-11-10,17.06
1992-11-11,20.84
1992-11-12,36.68
1992-11-13,36.32
1992-11-14,36.86
1992-11-15,37.94
1992-11-16,35.42
1992-11-17,30.38
1992-11-18,27.86
1992-11-19,33.44
1992-11-20,20.12
1992-11-21,22.46
1992-11-22,26.06
1992-11-23,19.4
1992-11-24,11.3
1992-11-25,24.62
1992-11-26,24.62
1992-11-27,34.7
1992-11-28,28.58
1992-11-29,18.68
1992-11-30,28.94
1992-12-01,30.2
1992-12-02,29.84
1992-12-03,20.3
1992-12-04,15.08
1992-12-05,11.48
1992-12-06,23.36
1992-12-07,28.58
1992-12-08,25.88
1992-12-09,28.22
1992-12-10,37.58
1992-12-11,21.92
1992-12-12,22.28
1992-12-13,17.78
1992-12-14,22.1
1992-12-15,18.14
1992-12-16,21.02
1992-12-17,21.2
1992-12-18,17.42
1992-12-19,9.32
1992-12-20,20.84
1992-12-21,24.08
1992-12-22,18.5
1992-12-23,16.16
1992-12-24,28.58
1992-12-25,19.4
1992-12-26,25.34
1992-12-27,27.86
1992-12-28,28.76
1992-12-29,23.0
1992-12-30,16.52
1992-12-31,26.06
1993-01-01,26.42
1993-01-02,10.04
1993-01-03,10.04
1993-01-04,17.24
1993-01-05,19.22
1993-01-06,19.4
1993-01-07,24.44
1993-01-08,24.8
1993-01-09,16.16
1993-01-10,18.5
1993-01-11,12.02
1993-01-12,12.92
1993-01-13,20.12
1993-01-14,32.9
1993-01-15,23.9
1993-01-16,30.02
1993-01-17,18.68
1993-01-18,18.68
1993-01-19,26.42
1993-01-20,32.0
1993-01-21,24.26
1993-01-22,29.12
1993-01-23,6.44
1993-01-24,23.0
1993-01-25,22.46
1993-01-26,27.86
1993-01-27,32.0
1993-01-28,32.9
1993-01-29,24.62
1993-01-30,21.74
1993-01-31,21.92
1993-02-01,26.6
1993-02-02,20.66
1993-02-03,28.4
1993-02-04,31.46
1993-02-05,34.88
1993-02-06,31.46
1993-02-07,24.62
1993-02-08,32.0
1993-02-09,31.46
1993-02-10,28.4
1993-02-11,27.86
1993-02-12,22.28
1993-02-13,18.14
1993-02-14,19.94
1993-02-15,17.42
1993-02-16,-3.2800000000000002
1993-02-17,9.68
1993-02-18,28.22
1993-02-19,32.0
1993-02-20,17.6
1993-02-21,18.32
1993-02-22,22.46
1993-02-23,25.16
1993-02-24,18.5
1993-02-25,14.54
1993-02-26,9.5
1993-02-27,11.66
1993-02-28,18.68
1993-03-01,22.1
1993-03-02,29.84
1993-03-03,29.84
1993-03-04,26.6
1993-03-05,33.62
1993-03-06,32.9
1993-03-07,35.6
1993-03-08,34.88
1993-03-09,35.78
1993-03-10,34.52
1993-03-11,31.1
1993-03-12,28.22
1993-03-13,35.96
1993-03-14,36.5
1993-03-15,33.8
1993-03-16,33.8
1993-03-17,37.04
1993-03-18,35.42
1993-03-19,34.34
1993-03-20,36.68
1993-03-21,29.12
1993-03-22,44.06
1993-03-23,39.38
1993-03-24,33.08
1993-03-25,25.16
1993-03-26,26.96
1993-03-27,32.36
1993-03-28,32.36
1993-03-29,32.72
1993-03-30,28.94
1993-03-31,30.92
1993-04-01,30.92
1993-04-02,31.1
1993-04-03,36.86
1993-04-04,34.52
1993-04-05,23.36
1993-04-06,24.8
1993-04-07,30.74
1993-04-08,40.82
1993-04-09,30.38
1993-04-10,29.12
1993-04-11,22.28
1993-04-12,21.56
1993-04-13,34.7
1993-04-14,28.22
1993-04-15,39.02
1993-04-16,28.94
1993-04-17,34.88
1993-04-18,26.96
1993-04-19,23.72
1993-04-20,33.44
1993-04-21,38.66
1993-04-22,31.82
1993-04-23,29.48
1993-04-24,30.92
1993-04-25,34.34
1993-04-26,28.4
1993-04-27,27.14
1993-04-28,35.78
1993-04-29,40.46
1993-04-30,31.82
1993-05-01,33.8
1993-05-02,40.82
1993-05-03,46.22
1993-05-04,27.5
1993-05-05,31.46
1993-05-06,40.1
1993-05-07,26.78
1993-05-08,28.04
1993-05-09,32.9
1993-05-10,48.02
1993-05-11,65.12
1993-05-12,41.18
1993-05-13,32.9
1993-05-14,37.94
1993-05-15,41.0
1993-05-16,49.64
1993-05-17,46.58
1993-05-18,51.62
1993-05-19,48.2
1993-05-20,45.5
1993-05-21,42.62
1993-05-22,61.88
1993-05-23,44.6
1993-05-24,44.06
1993-05-25,39.74
1993-05-26,40.46
1993-05-27,39.92
1993-05-28,37.94
1993-05-29,37.04
1993-05-30,46.4
1993-05-31,46.04
1993-06-01,39.56
1993-06-02,34.7
1993-06-03,33.98
1993-06-04,39.02
1993-06-05,35.24
1993-06-06,40.1
1993-06-07,36.68
1993-06-08,31.82
1993-06-09,42.62
1993-06-10,44.06
1993-06-11,39.38
1993-06-12,29.12
1993-06-13,40.28
1993-06-14,49.46
1993-06-15,45.32
1993-06-16,37.04
1993-06-17,44.42
1993-06-18,48.02
1993-06-19,58.46
1993-06-20,53.78
1993-06-21,56.48
1993-06-22,31.46
1993-06-23,31.1
1993-06-24,41.36
1993-06-25,52.88
1993-06-26,56.3
1993-06-27,46.76
1993-06-28,40.1
1993-06-29,40.1
1993-06-30,60.8
1993-07-01,42.98
1993-07-02,49.28
1993-07-03,37.04
1993-07-04,43.16
1993-07-05,45.32
1993-07-06,44.96
1993-07-07,45.5
1993-07-08,46.04
1993-07-09,50.9
1993-07-10,44.96
1993-07-11,50.9
1993-07-12,39.38
1993-07-13,42.08
1993-07-14,36.86
1993-07-15,37.22
1993-07-16,37.94
1993-07-17,38.12
1993-07-18,42.8
1993-07-19,51.62
1993-07-20,44.78
1993-07-21,40.1
1993-07-22,48.2
1993-07-23,46.94
1993-07-24,40.28
1993-07-25,41.36
1993-07-26,53.78
1993-07-27,48.74
1993-07-28,51.62
1993-07-29,52.34
1993-07-30,43.88
1993-07-31,48.38
1993-08-01,57.74
1993-08-02,59.36
1993-08-03,62.96
1993-08-04,63.68
1993-08-05,64.04
1993-08-06,62.96
1993-08-07,55.04
1993-08-08,51.8
1993-08-09,55.94
1993-08-10,57.2
1993-08-11,50.9
1993-08-12,47.12
1993-08-13,51.44
1993-08-14,52.7
1993-08-15,42.44
1993-08-16,42.26
1993-08-17,44.96
1993-08-18,51.62
1993-08-19,53.78
1993-08-20,47.84
1993-08-21,47.66
1993-08-22,51.62
1993-08-23,50.54
1993-08-24,42.62
1993-08-25,39.56
1993-08-26,42.44
1993-08-27,52.16
1993-08-28,56.84
1993-08-29,48.2
1993-08-30,45.14
1993-08-31,50.18
1993-09-01,57.56
1993-09-02,55.4
1993-09-03,60.62
1993-09-04,59.54
1993-09-05,59.18
1993-09-06,54.5
1993-09-07,55.94
1993-09-08,61.52
1993-09-09,66.02
1993-09-10,66.56
1993-09-11,59.18
1993-09-12,46.4
1993-09-13,38.48
1993-09-14,45.5
1993-09-15,43.34
1993-09-16,44.42
1993-09-17,42.8
1993-09-18,43.7
1993-09-19,40.82
1993-09-20,41.0
1993-09-21,35.78
1993-09-22,39.38
1993-09-23,40.28
1993-09-24,
1993-09-25,50.36
1993-09-26,54.14
1993-09-27,52.7
1993-09-28,61.52
1993-09-29,57.38
1993-09-30,62.42
1993-10-01,
1993-10-02,
1993-10-03,53.24
1993-10-04,
1993-10-05,
1993-10-06,45.14
1993-10-07,42.98
1993-10-08,
1993-10-09,
1993-10-10,45.68
1993-10-11,
1993-10-12,
1993-10-13,
1993-10-14,39.02
1993-10-15,38.84
1993-10-16,
1993-10-17,32.36
1993-10-18,33.44
1993-10-19,37.94
1993-10-20,39.92
1993-10-21,42.44
1993-10-22,38.3
1993-10-23,45.14
1993-10-24,44.24
1993-10-25,43.34
1993-10-26,42.8
1993-10-27,43.34
1993-10-28,46.04
1993-10-29,43.34
1993-10-30,38.12
1993-10-31,
1993-11-01,
1993-11-02,29.3
1993-11-03,41.0
1993-11-04,29.84
1993-11-05,27.5
1993-11-06,30.56
1993-11-07,34.34
1993-11-08,30.74
1993-11-09,28.04
1993-11-10,36.14
1993-11-11,
1993-11-12,28.76
1993-11-13,26.24
1993-11-14,20.48
1993-11-15,27.68
1993-11-16,29.3
1993-11-17,34.52
1993-11-18,27.86
1993-11-19,
1993-11-20,
1993-11-21,34.34
1993-11-22,
1993-11-23,
1993-11-24,
1993-11-25,11.84
1993-11-26,19.22
1993-11-27,31.64
1993-11-28,
1993-11-29,34.88
1993-11-30,30.02
1993-12-01,27.32
1993-12-02,27.5
1993-12-03,26.24
1993-12-04,33.26
1993-12-05,
1993-12-06,
1993-12-07,29.84
1993-12-08,32.36
1993-12-09,
1993-12-10,37.58
1993-12-11,
1993-12-12,22.28
1993-12-13,22.64
1993-12-14,28.4
1993-12-15,25.16
1993-12-16,18.68
1993-12-17,17.24
1993-12-18,14.36
1993-12-19,16.34
1993-12-20,19.76
1993-12-21,22.28
1993-12-22,
1993-12-23,28.58
1993-12-24,24.8
1993-12-25,32.72
1993-12-26,28.04
1993-12-27,26.6
1993-12-28,23.0
1993-12-29,25.52
1993-12-30,24.44
1993-12-31,
1994-01-01,34.7
1994-01-02,
1994-01-03,
1994-01-04,40.28
1994-01-05,27.5
1994-01-06,
1994-01-07,18.5
1994-01-08,32.36
1994-01-09,26.6
1994-01-10,23.9
1994-01-11,
1994-01-12,22.28
1994-01-13,
1994-01-14,33.26
1994-01-15,37.58
1994-01-16,
1994-01-17,
1994-01-18,35.96
1994-01-19,37.58
1994-01-20,36.5
1994-01-21,
1994-01-22,39.56
1994-01-23,
1994-01-24,30.92
1994-01-25,24.8
1994-01-26,
1994-01-27,21.38
1994-01-28,21.92
1994-01-29,24.8
1994-01-30,29.3
1994-01-31,16.7
1994-02-01,22.1
1994-02-02,19.94
1994-02-03,
1994-02-04,
1994-02-05,26.78
1994-02-06,27.86
1994-02-07,28.22
1994-02-08,16.7
1994-02-09,13.28
1994-02-10,28.22
1994-02-11,16.7
1994-02-12,10.76
1994-02-13,
1994-02-14,30.2
1994-02-15,28.4
1994-02-16,34.34
1994-02-17,33.26
1994-02-18,
1994-02-19,21.56
1994-02-20,20.3
1994-02-21,23.72
1994-02-22,17.96
1994-02-23,
1994-02-24,30.2
1994-02-25,30.38
1994-02-26,
1994-02-27,31.82
1994-02-28,33.08
1994-03-01,
1994-03-02,36.14
1994-03-03,43.34
1994-03-04,36.5
1994-03-05,35.42
1994-03-06,24.26
1994-03-07,30.74
1994-03-08,34.34
1994-03-09,34.16
1994-03-10,36.86
1994-03-11,
1994-03-12,28.22
1994-03-13,
1994-03-14,45.5
1994-03-15,46.04
1994-03-16,35.96
1994-03-17,28.4
1994-03-18,35.96
1994-03-19,21.56
1994-03-20,22.82
1994-03-21,34.88
1994-03-22,21.38
1994-03-23,15.44
1994-03-24,27.32
1994-03-25,30.2
1994-03-26,33.8
1994-03-27,38.12
1994-03-28,
1994-03-29,40.46
1994-03-30,36.32
1994-03-31,28.76
1994-04-01,29.3
1994-04-02,41.0
1994-04-03,35.78
1994-04-04,25.52
1994-04-05,29.66
1994-04-06,34.16
1994-04-07,24.8
1994-04-08,31.28
1994-04-09,29.48
1994-04-10,28.76
1994-04-11,30.38
1994-04-12,46.04
1994-04-13,33.44
1994-04-14,33.08
1994-04-15,
1994-04-16,
1994-04-17,49.82
1994-04-18,44.96
1994-04-19,
1994-04-20,45.5
1994-04-21,42.98
1994-04-22,36.14
1994-04-23,31.46
1994-04-24,
1994-04-25,30.2
1994-04-26,28.76
1994-04-27,33.08
1994-04-28,34.34
1994-04-29,37.94
1994-04-30,35.96
1994-05-01,33.08
1994-05-02,36.14
1994-05-03,40.64
1994-05-04,40.64
1994-05-05,38.12
1994-05-06,44.6
1994-05-07,46.04
1994-05-08,43.88
1994-05-09,52.52
1994-05-10,53.96
1994-05-11,56.12
1994-05-12,47.3
1994-05-13,38.12
1994-05-14,46.04
1994-05-15,45.32
1994-05-16,31.1
1994-05-17,31.1
1994-05-18,33.8
1994-05-19,35.42
1994-05-20,37.58
1994-05-21,35.96
1994-05-22,37.04
1994-05-23,49.28
1994-05-24,54.32
1994-05-25,56.12
1994-05-26,50.18
1994-05-27,43.52
1994-05-28,43.34
1994-05-29,45.68
1994-05-30,44.78
1994-05-31,54.86
1994-06-01,41.0
1994-06-02,45.14
1994-06-03,46.04
1994-06-04,41.18
1994-06-05,49.82
1994-06-06,31.46
1994-06-07,33.44
1994-06-08,36.86
1994-06-09,48.02
1994-06-10,54.14
1994-06-11,60.8
1994-06-12,53.42
1994-06-13,55.58
1994-06-14,32.9
1994-06-15,33.98
1994-06-16,39.74
1994-06-17,46.58
1994-06-18,38.48
1994-06-19,48.92
1994-06-20,55.76
1994-06-21,54.68
1994-06-22,56.12
1994-06-23,55.76
1994-06-24,47.84
1994-06-25,52.88
1994-06-26,39.56
1994-06-27,53.6
1994-06-28,56.66
1994-06-29,58.28
1994-06-30,59.54
1994-07-01,56.3
1994-07-02,53.06
1994-07-03,48.02
1994-07-04,52.34
1994-07-05,48.02
1994-07-06,45.68
1994-07-07,60.08
1994-07-08,64.76
1994-07-09,66.2
1994-07-10,60.8
1994-07-11,60.08
1994-07-12,60.26
1994-07-13,58.82
1994-07-14,59.18
1994-07-15,60.62
1994-07-16,64.76
1994-07-17,66.02
1994-07-18,63.14
1994-07-19,61.88
1994-07-20,66.74
1994-07-21,69.26
1994-07-22,72.5
1994-07-23,54.14
1994-07-24,59.0
1994-07-25,55.22
1994-07-26,59.54
1994-07-27,63.86
1994-07-28,66.02
1994-07-29,64.94
1994-07-30,64.94
1994-07-31,61.88
1994-08-01,57.56
1994-08-02,61.52
1994-08-03,57.2
1994-08-04,59.54
1994-08-05,57.2
1994-08-06,53.06
1994-08-07,59.0
1994-08-08,50.36
1994-08-09,51.26
1994-08-10,60.08
1994-08-11,55.4
1994-08-12,56.48
1994-08-13,60.44
1994-08-14,64.22
1994-08-15,59.54
1994-08-16,55.22
1994-08-17,54.5
1994-08-18,59.18
1994-08-19,54.32
1994-08-20,54.14
1994-08-21,51.08
1994-08-22,46.4
1994-08-23,57.38
1994-08-24,55.22
1994-08-25,57.74
1994-08-26,54.32
1994-08-27,53.78
1994-08-28,56.12
1994-08-29,49.82
1994-08-30,53.6
1994-08-31,57.38
1994-09-01,53.96
1994-09-02,50.72
1994-09-03,45.68
1994-09-04,43.52
1994-09-05,53.96
1994-09-06,56.84
1994-09-07,56.48
1994-09-08,55.94
1994-09-09,48.38